Fort Covington, New York, United States (12937)
Lat: 44.99N, Lon: 74.5W
Wx Zone: NYZ027
Local Info
Past Weather Observations for Sunday, July 20, 2014

NOTE: This archive is for the closest National Weather Service station to Fort Covington. Information may differ from the station used for current weather conditions.

Click here for Long-term Archive

Time Weather Temperature Dewpoint Humidity Pressure Winds Precip Visibility
23:53
Overcast
66°F / 19°C 64°F / 18°C 94% 30.12 in
(1020 mb)
Calm - 9SM
22:53
Overcast
66°F / 19°C 66°F / 19°C 100% 30.12 in
(1020 mb)
Calm - 8SM
21:53
Overcast
Fog And Mist
66°F / 19°C 66°F / 19°C 100% 30.12 in
(1020 mb)
SSE 3.5 mph
(SSE 6 kph)
- 6SM
20:53
Mostly Cloudy
66°F / 19°C 64°F / 18°C 94% 30.12 in
(1020 mb)
Calm - 10SM
19:53
Overcast
Fog And Mist
66°F / 19°C 66°F / 19°C 100% 30.09 in
(1019 mb)
W 4.6 mph
(W 7 kph)
0.01 in
(0.25 mm)
6SM
18:53
Overcast
Light Rain
68°F / 20°C 66°F / 19°C 94% 30.09 in
(1019 mb)
Calm 0.03 in
(0.76 mm)
6SM
17:53
Overcast
Light Rain
70°F / 21°C 66°F / 19°C 88% 30.12 in
(1020 mb)
SE 5.8 mph
(SE 9 kph)
0.06 in
(1.52 mm)
8SM
17:39
Overcast
Rain
70°F / 21°C 66°F / 19°C 88% 30.12 in
(1020 mb)
S 8.1 mph
(S 13 kph)
0.06 in
(1.52 mm)
3SM
16:53
Overcast
75°F / 24°C 64°F / 18°C 69% 30.09 in
(1019 mb)
NW 3.5 mph
(NW 6 kph)
- 10SM
15:53
Clear
81°F / 27°C 63°F / 17°C 54% 30.09 in
(1019 mb)
NE 6.9 mph
(NE 11 kph)
- 10SM
14:53
Overcast
81°F / 27°C 64°F / 18°C 58% 30.09 in
(1019 mb)
N 3.5 mph
(N 6 kph)
- 10SM
13:53
Overcast
79°F / 26°C 63°F / 17°C 58% 30.09 in
(1019 mb)
NNW 4.6 mph
(NNW 7 kph)
- 10SM
12:53
Partly Cloudy
79°F / 26°C 63°F / 17°C 58% 30.12 in
(1020 mb)
NW 4.6 mph
(NW 7 kph)
- 10SM
11:53
Mostly Cloudy
81°F / 27°C 64°F / 18°C 58% 30.12 in
(1020 mb)
WNW 5.8 mph
(WNW 9 kph)
- 10SM
10:53
Partly Cloudy
79°F / 26°C 61°F / 16°C 54% 30.15 in
(1021 mb)
Calm - 10SM
09:53
Clear
75°F / 24°C 61°F / 16°C 61% 30.15 in
(1021 mb)
SSW 5.8 mph
(SSW 9 kph)
- 10SM
08:53
Clear
75°F / 24°C 61°F / 16°C 61% 30.15 in
(1021 mb)
SW 8.1 mph
(SW 13 kph)
- 10SM
07:53
Clear
73°F / 23°C 63°F / 17°C 69% 30.15 in
(1021 mb)
S 4.6 mph
(S 7 kph)
- 10SM
06:53
Clear
66°F / 19°C 61°F / 16°C 83% 30.15 in
(1021 mb)
Calm - 10SM
05:53
Mostly Cloudy
63°F / 17°C 61°F / 16°C 94% 30.15 in
(1021 mb)
Calm - 10SM
04:53
Overcast
63°F / 17°C 61°F / 16°C 94% 30.15 in
(1021 mb)
Calm - 10SM
03:53
Clear
61°F / 16°C 61°F / 16°C 100% 30.15 in
(1021 mb)
Calm - 10SM
02:53
Clear
61°F / 16°C 61°F / 16°C 100% 30.15 in
(1021 mb)
Calm - 10SM
01:53
Clear
61°F / 16°C 61°F / 16°C 100% 30.15 in
(1021 mb)
Calm - 10SM
00:53
Clear
63°F / 17°C 61°F / 16°C 94% 30.15 in
(1021 mb)
Calm - 10SM
Time Weather Temperature Dewpoint Humidity Pressure Winds Precip Visibility


Weather for websites

WeatherForYou.com, LLC is not responsible for any damages or problems caused by this service. Current weather conditions are obtained from the closest station including government and personal stations which may have varying degrees of accuracy. Weather forecasts are derived from the NOAA NDFD. Like all things, this site belongs to Jesus Christ... He just trusts me to maintain it. If you have any questions or comments email webmaster@weatherforyou.com

Copyright © 2014, WeatherForYou.com LLC. All rights reserved.